IRIDIUM 20 [P]

Last updated on Fri Oct 12 2018 00:08:12 GMT+0000 (Coordinated Universal Time)

1 25577U 98074A 18284.34492695 .00142148 -11159-5 19763-3 0 9991 2 25577 86.6426 54.0375 0366270 347.3886 11.8379 15.42043868 37513

Satellite not in orbit